STARLINK-33565 (62288 NORAD) Tracking and Keplerian Element Data

This shows tracking and keplerian element data for the satellite.

Feedback or suggestion? Click here.




ElementValue
Catalog62288
NameSTARLINK-33565
Epoch Orbit1014
Epoch Day34.82278294
Epoch Year2025
RAAN313.0048
Inclination42.9992
Eccentricity0.0001753
Argument of Perigee264.6658
Mean Anonmoly95.3998
Mean Motion15.40697049
Decay Rate7.39E-06
L11 62288U 24237X 25034.82278294 .00000739 00000+0 24958-4 0 9990
L22 62288 42.9992 313.0048 0001753 264.6658 95.3998 15.40697049 10149



Live tracking and technical data element details for STARLINK-33565 (NORAD 62288). STARLINK-33565 can be tracked NOW for your location showing map with azimuth and elevation plus other details from your city location.







IsCatalogInMostPopularTable: catalog: 62288, numindb: 13
Update: records affected: 1



GetName: 62288 STARLINK-33565

Hit Count: updated at: Sat, 24 May 2025 15:35:54 GMT